Terminal Aerodrome Forecast
Issued by NWS Austin/San Antonio, TX

Home | Current Version | Previous Version | Text Only | Print | Product List | Glossary On
Versions: 1 2 3 4 5 6 7 8 9 10 11 12 13 14 15 16 17 18 19 20 21 22 23 24 25 26
000
FTUS44 KEWX 261520 AAC
TAFAUS
TAF AMD
KAUS 261520Z 2615/2718 18010KT 5SM BR VCSH BKN015 OVC025
     FM261630 17012KT P6SM VCSH BKN025 OVC035
     FM261900 18013KT P6SM BKN035
     FM262100 17012KT P6SM VCTS OVC025CB
     FM270600 16011KT P6SM OVC015
     FM271000 17012KT P6SM OVC007
     FM271500 18011KT P6SM BKN015=

USA.gov is the U.S. government's official web portal to all federal, state and local government web resources and services.